Location: Arbon
(43.0005°N, 0.7472°E)
Time: 08:41:46
(UTC+00:00)

A-11 Canister half - Pass Details

Date: 29 November 2020
Orbit: 1517 x 1683 km, 47.2° (Epoch: 22 January)

Event Time Altitude Azimuth Distance (km) Brightness Sun altitude
Rises 18:45:03 0° 295° (WNW) 4,935 12.6 -25.2°
Reaches altitude 10° 18:48:37 10° 287° (WNW) 3,949 12.0 -25.9°
Maximum altitude 18:57:15 33° 228° (SW) 2,537 10.5 -27.4°
Drops below altitude 10° 19:05:49 10° 169° (S) 3,897 11.0 -29.0°
Sets 19:09:20 0° 160° (SSE) 4,862 11.5 -29.6°
